Regional Weather Roundup
Issued by NWS

Home | Current Version | Previous Version | Text Only | Print | Product List | Glossary On
Versions: 1 2 3 4 5 6 7 8 9 10 11 12 13 14 15 16 17 18 19 20 21 22 23 24 25 26 27 28 29 30 31 32 33 34 35 36 37 38 39 40 41 42 43 44 45 46 47 48 49 50
000
ASUS45 KSLC 011210
RWRUT

UTAH REGIONAL WEATHER ROUNDUP
NATIONAL WEATHER SERVICE SALT LAKE CITY UT
600 AM MDT WED JUL 01 2015

UTZ001>011-023>025-011300-

NORTHERN UTAH

CITY           SKY/WX    TMP DP  RH WIND       PRES   REMARKS
BRIGHAM CITY   PTCLDY    71  54  55 E7        30.07S
HILL AFB       PTCLDY    71  54  55 E13       30.11R
LOGAN          CLEAR     63  55  75 NW6       30.09R
OGDEN          PTCLDY    72  53  51 S3        30.08R
PROVO AIRPORT  MOCLDY    70  54  56 CALM      30.10R
SALT LAKE CITY MOCLDY    76  57  51 CALM      30.06R
VERNAL         CLOUDY    65  53  65 W6        30.13R
WENDOVER       CLOUDY    75  48  38 CALM      30.06S
HEBER CITY     PTCLDY    61  50  67 SE3       30.19R
WEST JORDAN    CLEAR     73  52  46 S5        30.10R

$$

UTZ012>022-026-027-011300-

SOUTHERN/CENTRAL UTAH

CITY           SKY/WX    TMP DP  RH WIND       PRES   REMARKS
BLANDING       CLOUDY    71  41  33 CALM      30.22R
BRYCE CANYON   PTCLDY    50  44  80 NW6       30.33S
CEDAR CITY     PTCLDY    65  45  48 S6        30.17R
DELTA          CLOUDY    70  56  59 E3        30.11S
HANKSVILLE     CLOUDY    70  50  49 NW6       30.05S
MILFORD        MOCLDY    65  46  50 NW7       30.12S
MOAB/CYNLANDS  CLEAR     73  45  36 SW5       30.03R
PRICE          CLOUDY    74  46  36 E5        30.15R
ST GEORGE      MOSUNNY   88  46  23 CALM      29.94R
KANAB          PTCLDY    63  46  55 CALM      30.15R

$$

REGIONAL REPORTS     COLORADO/ARIZONA

CITY           SKY/WX    TMP DP  RH WIND       PRES   REMARKS
CRAIG, CO      PTCLDY    51  46  83 CALM      30.24R
GRAND JUNCTION MOCLDY    66  45  46 E5        30.09R
RIFLE          MOCLDY    63  47  55 CALM      30.17R
MONTROSE       PTCLDY    63  47  55 S6        30.18R
CORTEZ         CLEAR     77  45  32 N6        30.16R
PAGE, AZ       PTCLDY    79  46  31 S5        29.99S
GRAND CANYON   CLEAR     58  53  84 CALM      30.24R
KINGMAN        CLEAR     74  55  51 S9        30.02R
FLAGSTAFF      CLEAR     59  54  83 W5        30.29S

$$

REGIONAL REPORTS    NEVADA/IDAHO/WYOMING

CITY           SKY/WX    TMP DP  RH WIND       PRES   REMARKS
LAS VEGAS, NV  LGT RAIN  89  56  32 SW26G35   29.86R
ELY            MOCLDY    56  50  80 SE6       30.24F
ELKO           PTCLDY    63  54  72 MISG      30.16S
POCATELLO, ID  CLEAR     62  55  77 S7        30.09S
BURLEY         PTCLDY    65  57  75 CALM      30.06R
EVANSTON, WY   MOCLDY    63  46  54 SW6       30.29R
ROCK SPRINGS   MOCLDY    60  51  72 SW8       30.25S
KEMMERER       PTCLDY    61  46  59 NW7       30.30S

$$


USA.gov is the U.S. government's official web portal to all federal, state and local government web resources and services.